Time,TemperatureF,DewpointF,PressureIn,WindDirection,WindDirectionDegrees,WindSpeedMPH,WindSpeedGustMPH,Humidity,HourlyPrecipIn,Conditions,Clouds,dailyrainin,SolarRadiationWatts/m^2,SoftwareType,DateUTC
2013-07-23 00:00:00,68.5,65.1,29.83,ESE,110,5.0,8.0,89,0.00,,OVC012,0.00,0.00,VWS V14.01,2013-07-23 04:00:00,
2013-07-23 00:01:00,68.5,65.1,29.83,ESE,107,6.0,8.0,89,0.00,,OVC012,0.00,0.00,VWS V14.01,2013-07-23 04:01:00,
2013-07-23 00:03:00,68.4,65.0,29.83,ESE,114,4.0,5.0,89,0.00,,OVC012,0.00,0.00,VWS V14.01,2013-07-23 04:03:00,
2013-07-23 00:05:00,68.4,65.0,29.83,ESE,114,4.0,8.0,89,0.00,,OVC012,0.00,0.00,VWS V14.01,2013-07-23 04:05:00,
2013-07-23 00:08:00,68.4,65.0,29.83,ESE,113,4.0,4.0,89,0.00,,OVC012,0.00,0.00,VWS V14.01,2013-07-23 04:08:00,
2013-07-23 00:10:00,68.4,65.0,29.83,ESE,114,4.0,5.0,89,0.00,,OVC012,0.00,0.00,VWS V14.01,2013-07-23 04:10:00,
2013-07-23 00:13:00,68.4,65.0,29.82,ESE,113,2.0,4.0,89,0.00,,OVC012,0.00,0.00,VWS V14.01,2013-07-23 04:13:00,
2013-07-23 00:15:00,68.4,65.0,29.83,ESE,113,2.0,6.0,89,0.00,,OVC012,0.00,0.00,VWS V14.01,2013-07-23 04:15:00,
2013-07-23 00:18:00,68.3,64.9,29.82,ESE,105,4.0,5.0,89,0.00,,OVC012,0.00,0.00,VWS V14.01,2013-07-23 04:18:00,
2013-07-23 00:20:00,68.3,64.9,29.82,ESE,105,5.0,7.0,89,0.00,,OVC012,0.00,0.00,VWS V14.01,2013-07-23 04:20:00,
2013-07-23 00:23:00,68.3,64.9,29.82,ESE,105,4.0,5.0,89,0.00,,OVC012,0.00,0.00,VWS V14.01,2013-07-23 04:23:00,
2013-07-23 00:25:00,68.3,64.9,29.82,ESE,105,5.0,7.0,89,0.00,,OVC012,0.00,0.00,VWS V14.01,2013-07-23 04:25:00,
2013-07-23 00:29:00,68.3,64.9,29.82,ESE,111,2.0,5.0,89,0.00,,OVC012,0.00,0.00,VWS V14.01,2013-07-23 04:29:00,
2013-07-23 00:30:00,68.3,64.9,29.82,ESE,111,4.0,6.0,89,0.00,,OVC012,0.00,0.00,VWS V14.01,2013-07-23 04:30:00,
2013-07-23 00:34:00,68.3,64.9,29.81,ESE,111,2.0,4.0,89,0.00,,OVC012,0.00,0.00,VWS V14.01,2013-07-23 04:34:00,
2013-07-23 00:35:00,68.4,65.0,29.81,ESE,111,2.0,5.0,89,0.00,,OVC012,0.00,0.00,VWS V14.01,2013-07-23 04:35:00,
2013-07-23 00:39:00,68.3,64.9,29.81,ENE,70,3.0,4.0,89,0.00,,OVC012,0.00,0.00,VWS V14.01,2013-07-23 04:39:00,
2013-07-23 00:40:00,68.3,65.3,29.81,ENE,70,1.0,5.0,90,0.00,,OVC012,0.00,0.00,VWS V14.01,2013-07-23 04:40:00,
2013-07-23 00:44:00,68.3,65.3,29.81,NE,51,3.0,6.0,90,0.00,,OVC012,0.00,0.00,VWS V14.01,2013-07-23 04:44:00,
2013-07-23 00:45:00,68.3,65.3,29.81,NE,51,4.0,5.0,90,0.00,,OVC012,0.00,0.00,VWS V14.01,2013-07-23 04:45:00,
2013-07-23 00:49:00,68.3,65.3,29.80,East,86,4.0,5.0,90,0.00,,OVC012,0.00,0.00,VWS V14.01,2013-07-23 04:49:00,
2013-07-23 00:50:00,68.3,65.3,29.81,ENE,62,0.0,6.0,90,0.00,,OVC012,0.00,0.00,VWS V14.01,2013-07-23 04:50:00,
2013-07-23 00:54:00,68.3,65.3,29.80,East,91,5.0,5.0,90,0.00,,OVC012,0.00,0.00,VWS V14.01,2013-07-23 04:54:00,
2013-07-23 00:55:00,68.3,65.3,29.80,East,89,2.0,5.0,90,0.00,,OVC012,0.00,0.00,VWS V14.01,2013-07-23 04:55:00,
2013-07-23 00:59:00,68.2,65.2,29.80,ENE,78,2.0,5.0,90,0.00,,OVC012,0.00,0.00,VWS V14.01,2013-07-23 04:59:00,
2013-07-23 01:00:00,68.3,65.3,29.80,ENE,76,3.0,7.0,90,0.00,,OVC012,0.00,0.00,VWS V14.01,2013-07-23 05:00:00,
2013-07-23 01:04:00,68.2,65.2,29.80,East,79,3.0,4.0,90,0.00,,OVC012,0.00,0.00,VWS V14.01,2013-07-23 05:04:00,
2013-07-23 01:05:00,68.2,65.2,29.80,East,79,3.0,5.0,90,0.00,,OVC012,0.00,0.00,VWS V14.01,2013-07-23 05:05:00,
2013-07-23 01:09:00,68.3,65.6,29.80,ESE,111,5.0,6.0,91,0.00,,OVC012,0.00,0.00,VWS V14.01,2013-07-23 05:09:00,
2013-07-23 01:10:00,68.3,65.6,29.80,ESE,112,4.0,7.0,91,0.00,,OVC012,0.00,0.00,VWS V14.01,2013-07-23 05:10:00,
2013-07-23 01:14:00,68.3,65.6,29.79,East,92,2.0,5.0,91,0.00,,OVC012,0.00,0.00,VWS V14.01,2013-07-23 05:14:00,
2013-07-23 01:15:00,68.3,65.6,29.80,East,92,4.0,7.0,91,0.00,,OVC012,0.00,0.00,VWS V14.01,2013-07-23 05:15:00,
2013-07-23 01:19:00,68.3,65.6,29.79,East,85,3.0,4.0,91,0.00,,OVC012,0.00,0.00,VWS V14.01,2013-07-23 05:19:00,
2013-07-23 01:20:00,68.3,65.6,29.79,East,86,3.0,5.0,91,0.00,,OVC012,0.00,0.00,VWS V14.01,2013-07-23 05:20:00,
2013-07-23 01:24:00,68.2,65.5,29.79,ENE,78,3.0,4.0,91,0.00,,OVC012,0.00,0.00,VWS V14.01,2013-07-23 05:24:00,
2013-07-23 01:25:00,68.2,65.5,29.79,ENE,78,3.0,5.0,91,0.00,,OVC012,0.00,0.00,VWS V14.01,2013-07-23 05:25:00,
2013-07-23 01:29:00,68.2,65.8,29.79,ENE,78,4.0,5.0,92,0.00,,OVC012,0.00,0.00,VWS V14.01,2013-07-23 05:29:00,
2013-07-23 01:30:00,68.2,65.8,29.78,ENE,78,1.0,5.0,92,0.00,,OVC012,0.00,0.00,VWS V14.01,2013-07-23 05:30:00,
2013-07-23 01:34:00,68.1,65.7,29.79,ESE,102,2.0,5.0,92,0.00,,OVC012,0.00,0.00,VWS V14.01,2013-07-23 05:34:00,
2013-07-23 01:35:00,68.1,65.7,29.79,ENE,74,3.0,6.0,92,0.00,,OVC012,0.00,0.00,VWS V14.01,2013-07-23 05:35:00,
2013-07-23 01:39:00,68.1,65.7,29.78,East,87,4.0,6.0,92,0.00,,OVC012,0.00,0.00,VWS V14.01,2013-07-23 05:39:00,
2013-07-23 01:40:00,68.1,65.7,29.78,East,101,2.0,5.0,92,0.00,,OVC012,0.00,0.00,VWS V14.01,2013-07-23 05:40:00,
2013-07-23 01:44:00,68.1,66.0,29.78,ESE,102,4.0,8.0,93,0.00,,OVC012,0.00,0.00,VWS V14.01,2013-07-23 05:44:00,
2013-07-23 01:45:00,68.1,66.0,29.78,ESE,104,4.0,7.0,93,0.00,,OVC012,0.00,0.00,VWS V14.01,2013-07-23 05:45:00,
2013-07-23 01:50:00,68.1,66.0,29.78,ENE,70,4.0,7.0,93,0.00,,OVC012,0.00,0.00,VWS V14.01,2013-07-23 05:50:00,
2013-07-23 01:55:00,68.0,65.9,29.78,East,82,4.0,5.0,93,0.00,,OVC012,0.00,0.00,VWS V14.01,2013-07-23 05:55:00,
2013-07-23 02:00:00,68.0,65.9,29.77,East,82,2.0,4.0,93,0.00,,OVC012,0.00,0.00,VWS V14.01,2013-07-23 06:00:00,
2013-07-23 02:05:00,67.9,65.8,29.77,East,82,3.0,4.0,93,0.00,,OVC012,0.00,0.00,VWS V14.01,2013-07-23 06:05:00,
2013-07-23 02:10:00,67.9,66.1,29.77,East,90,4.0,5.0,94,0.00,,OVC012,0.00,0.00,VWS V14.01,2013-07-23 06:10:00,
2013-07-23 02:15:00,67.9,66.1,29.77,East,100,5.0,8.0,94,0.00,,OVC012,0.00,0.00,VWS V14.01,2013-07-23 06:15:00,
2013-07-23 02:20:00,67.9,66.1,29.77,ENE,74,2.0,6.0,94,0.00,,OVC012,0.00,0.00,VWS V14.01,2013-07-23 06:20:00,
2013-07-23 02:25:00,67.9,66.1,29.76,ENE,75,3.0,4.0,94,0.00,,OVC012,0.00,0.00,VWS V14.01,2013-07-23 06:25:00,
2013-07-23 02:30:00,67.8,66.0,29.76,East,83,2.0,6.0,94,0.00,,OVC012,0.00,0.00,VWS V14.01,2013-07-23 06:30:00,
2013-07-23 02:35:00,67.8,66.0,29.76,East,88,4.0,6.0,94,0.00,,OVC012,0.00,0.00,VWS V14.01,2013-07-23 06:35:00,
2013-07-23 02:40:00,67.8,66.3,29.76,East,87,3.0,5.0,95,0.00,,OVC012,0.00,0.00,VWS V14.01,2013-07-23 06:40:00,
2013-07-23 02:45:00,67.8,66.3,29.76,East,99,4.0,6.0,95,0.00,,OVC012,0.00,0.00,VWS V14.01,2013-07-23 06:45:00,
2013-07-23 02:50:00,67.8,66.3,29.75,East,90,5.0,7.0,95,0.00,,OVC012,0.00,0.00,VWS V14.01,2013-07-23 06:50:00,
2013-07-23 02:55:00,67.8,66.3,29.75,ESE,109,8.0,8.0,95,0.00,,OVC012,0.00,0.00,VWS V14.01,2013-07-23 06:55:00,
2013-07-23 02:56:00,67.8,66.3,29.75,East,88,5.0,8.0,95,0.00,,OVC012,0.00,0.00,VWS V14.01,2013-07-23 06:56:00,
2013-07-23 03:00:00,67.8,66.3,29.75,ESE,104,6.0,8.0,95,0.00,,OVC012,0.00,0.00,VWS V14.01,2013-07-23 07:00:00,
2013-07-23 03:01:00,67.8,66.3,29.75,East,81,5.0,7.0,95,0.00,,OVC012,0.00,0.00,VWS V14.01,2013-07-23 07:01:00,
2013-07-23 03:05:00,67.7,66.2,29.75,East,94,5.0,7.0,95,0.00,,OVC012,0.00,0.00,VWS V14.01,2013-07-23 07:05:00,
2013-07-23 03:06:00,67.7,66.2,29.75,East,94,4.0,6.0,95,0.00,,OVC012,0.00,0.00,VWS V14.01,2013-07-23 07:06:00,
2013-07-23 03:10:00,67.7,66.2,29.75,East,80,4.0,6.0,95,0.00,,OVC012,0.00,0.00,VWS V14.01,2013-07-23 07:10:00,
2013-07-23 03:11:00,67.7,66.2,29.74,ESE,111,6.0,8.0,95,0.00,,OVC012,0.00,0.00,VWS V14.01,2013-07-23 07:11:00,
2013-07-23 03:15:00,67.7,66.2,29.74,East,94,5.0,8.0,95,0.00,,OVC012,0.00,0.00,VWS V14.01,2013-07-23 07:15:00,
2013-07-23 03:16:00,67.7,66.2,29.74,ENE,71,3.0,6.0,95,0.00,,OVC012,0.00,0.00,VWS V14.01,2013-07-23 07:16:00,
2013-07-23 03:20:00,67.7,66.2,29.74,ESE,106,7.0,7.0,95,0.00,,OVC012,0.00,0.00,VWS V14.01,2013-07-23 07:20:00,
2013-07-23 03:21:00,67.7,66.2,29.73,East,98,7.0,8.0,95,0.00,,OVC012,0.00,0.00,VWS V14.01,2013-07-23 07:21:00,
2013-07-23 03:25:00,67.7,66.2,29.73,East,80,5.0,8.0,95,0.00,,OVC012,0.00,0.00,VWS V14.01,2013-07-23 07:25:00,
2013-07-23 03:26:00,67.7,66.2,29.73,East,95,5.0,6.0,95,0.00,,OVC012,0.00,0.00,VWS V14.01,2013-07-23 07:26:00,
2013-07-23 03:30:00,67.8,66.3,29.73,East,95,5.0,6.0,95,0.00,,OVC012,0.00,0.00,VWS V14.01,2013-07-23 07:30:00,
2013-07-23 03:31:00,67.8,66.3,29.73,ESE,117,4.0,7.0,95,0.00,,OVC012,0.00,0.00,VWS V14.01,2013-07-23 07:31:00,
2013-07-23 03:35:00,67.8,66.3,29.73,ESE,117,2.0,7.0,95,0.00,,OVC012,0.00,0.00,VWS V14.01,2013-07-23 07:35:00,
2013-07-23 03:36:00,67.8,66.3,29.73,ESE,117,2.0,6.0,95,0.00,,OVC012,0.00,0.00,VWS V14.01,2013-07-23 07:36:00,
2013-07-23 03:40:00,67.8,66.3,29.73,ESE,118,4.0,6.0,95,0.00,,OVC012,0.00,0.00,VWS V14.01,2013-07-23 07:40:00,
2013-07-23 03:41:00,67.8,66.3,29.73,ESE,102,7.0,8.0,95,0.00,,OVC012,0.00,0.00,VWS V14.01,2013-07-23 07:41:00,
2013-07-23 03:45:00,67.8,66.3,29.73,ENE,72,4.0,8.0,95,0.00,,OVC012,0.00,0.00,VWS V14.01,2013-07-23 07:45:00,
2013-07-23 03:46:00,67.8,66.3,29.72,East,86,2.0,7.0,95,0.00,,OVC012,0.00,0.00,VWS V14.01,2013-07-23 07:46:00,
2013-07-23 03:50:00,67.8,66.3,29.72,East,86,2.0,7.0,95,0.00,,OVC012,0.00,0.00,VWS V14.01,2013-07-23 07:50:00,
2013-07-23 03:51:00,67.8,66.3,29.72,East,90,5.0,6.0,95,0.00,,OVC012,0.00,0.00,VWS V14.01,2013-07-23 07:51:00,
2013-07-23 03:55:00,67.8,66.6,29.72,East,92,4.0,6.0,96,0.00,,OVC012,0.00,0.00,VWS V14.01,2013-07-23 07:55:00,
2013-07-23 03:56:00,67.8,66.6,29.72,East,89,4.0,6.0,96,0.00,,OVC012,0.00,0.00,VWS V14.01,2013-07-23 07:56:00,
2013-07-23 04:00:00,67.8,66.6,29.72,East,89,3.0,6.0,96,0.00,,OVC012,0.00,0.00,VWS V14.01,2013-07-23 08:00:00,
2013-07-23 04:01:00,67.8,66.6,29.72,ESE,103,6.0,8.0,96,0.00,,OVC012,0.00,0.00,VWS V14.01,2013-07-23 08:01:00,
2013-07-23 04:05:00,67.8,66.6,29.72,ENE,58,6.0,8.0,96,0.00,,OVC012,0.00,0.00,VWS V14.01,2013-07-23 08:05:00,
2013-07-23 04:06:00,67.8,66.6,29.71,East,85,3.0,7.0,96,0.00,,OVC012,0.00,0.00,VWS V14.01,2013-07-23 08:06:00,
2013-07-23 04:10:00,67.8,66.6,29.71,East,85,3.0,7.0,96,0.00,,OVC012,0.00,0.00,VWS V14.01,2013-07-23 08:10:00,
2013-07-23 04:12:00,67.8,66.6,29.71,ESE,107,5.0,7.0,96,0.00,,OVC012,0.00,0.00,VWS V14.01,2013-07-23 08:12:00,
2013-07-23 04:15:00,67.8,66.6,29.71,ESE,107,5.0,7.0,96,0.00,,OVC012,0.00,0.00,VWS V14.01,2013-07-23 08:15:00,
2013-07-23 04:17:00,67.8,66.6,29.71,ESE,108,4.0,5.0,96,0.00,,OVC012,0.00,0.00,VWS V14.01,2013-07-23 08:17:00,
2013-07-23 04:20:00,67.8,66.6,29.71,ESE,107,2.0,5.0,96,0.00,,OVC012,0.00,0.00,VWS V14.01,2013-07-23 08:20:00,
2013-07-23 04:22:00,67.9,66.7,29.71,ESE,107,5.0,6.0,96,0.00,,OVC012,0.00,0.00,VWS V14.01,2013-07-23 08:22:00,
2013-07-23 04:25:00,67.9,66.7,29.71,ESE,108,5.0,6.0,96,0.00,,OVC012,0.00,0.00,VWS V14.01,2013-07-23 08:25:00,
2013-07-23 04:27:00,67.9,66.7,29.71,East,101,5.0,8.0,96,0.00,,OVC012,0.00,0.00,VWS V14.01,2013-07-23 08:27:00,
2013-07-23 04:30:00,67.9,66.7,29.71,East,91,4.0,8.0,96,0.00,,OVC012,0.00,0.00,VWS V14.01,2013-07-23 08:30:00,
2013-07-23 04:32:00,67.9,66.7,29.71,East,96,5.0,6.0,96,0.00,,OVC012,0.00,0.00,VWS V14.01,2013-07-23 08:32:00,
2013-07-23 04:35:00,67.8,66.6,29.71,East,97,5.0,6.0,96,0.00,,OVC012,0.00,0.00,VWS V14.01,2013-07-23 08:35:00,
2013-07-23 04:37:00,67.8,66.6,29.70,East,99,5.0,6.0,96,0.00,,OVC012,0.00,0.00,VWS V14.01,2013-07-23 08:37:00,
2013-07-23 04:40:00,67.8,66.6,29.70,ESE,115,6.0,6.0,96,0.00,,OVC012,0.00,0.00,VWS V14.01,2013-07-23 08:40:00,
2013-07-23 04:42:00,67.9,66.7,29.70,ESE,113,2.0,6.0,96,0.00,,OVC012,0.00,0.00,VWS V14.01,2013-07-23 08:42:00,
2013-07-23 04:45:00,67.9,66.7,29.70,ESE,113,2.0,6.0,96,0.00,,OVC012,0.00,0.00,VWS V14.01,2013-07-23 08:45:00,
2013-07-23 04:47:00,67.9,66.7,29.70,East,90,5.0,6.0,96,0.00,,OVC012,0.00,0.00,VWS V14.01,2013-07-23 08:47:00,
2013-07-23 04:50:00,67.9,66.7,29.70,East,90,5.0,6.0,96,0.00,,OVC012,0.00,0.00,VWS V14.01,2013-07-23 08:50:00,
2013-07-23 04:52:00,67.9,66.7,29.70,ESE,113,6.0,8.0,96,0.00,,OVC012,0.00,0.00,VWS V14.01,2013-07-23 08:52:00,
2013-07-23 04:55:00,67.9,66.7,29.70,ESE,113,6.0,8.0,96,0.00,,OVC012,0.00,0.00,VWS V14.01,2013-07-23 08:55:00,
2013-07-23 04:57:00,67.9,66.7,29.70,East,98,5.0,9.0,96,0.00,,OVC012,0.00,0.00,VWS V14.01,2013-07-23 08:57:00,
2013-07-23 05:00:00,67.9,66.7,29.70,East,98,5.0,9.0,96,0.00,,OVC012,0.00,0.00,VWS V14.01,2013-07-23 09:00:00,
2013-07-23 05:02:00,67.9,66.7,29.70,East,95,4.0,4.0,96,0.00,,OVC012,0.00,0.00,VWS V14.01,2013-07-23 09:02:00,
2013-07-23 05:05:00,67.9,66.7,29.70,East,95,2.0,6.0,96,0.00,,OVC012,0.00,0.00,VWS V14.01,2013-07-23 09:05:00,
2013-07-23 05:07:00,67.9,66.7,29.70,ESE,111,4.0,4.0,96,0.00,,OVC012,0.00,0.00,VWS V14.01,2013-07-23 09:07:00,
2013-07-23 05:10:00,67.9,66.7,29.70,ESE,111,4.0,6.0,96,0.00,,OVC012,0.00,0.00,VWS V14.01,2013-07-23 09:10:00,
2013-07-23 05:12:00,67.8,66.6,29.69,ESE,108,6.0,7.0,96,0.00,,OVC012,0.00,0.00,VWS V14.01,2013-07-23 09:12:00,
2013-07-23 05:15:00,67.8,66.6,29.69,ESE,107,6.0,8.0,96,0.00,,OVC012,0.00,0.00,VWS V14.01,2013-07-23 09:15:00,
2013-07-23 05:17:00,67.8,66.6,29.69,East,101,7.0,9.0,96,0.00,,OVC012,0.00,0.00,VWS V14.01,2013-07-23 09:17:00,
2013-07-23 05:20:00,67.8,66.6,29.69,ESE,105,6.0,7.0,96,0.00,,OVC012,0.00,0.00,VWS V14.01,2013-07-23 09:20:00,
2013-07-23 05:22:00,67.8,66.6,29.69,ESE,119,5.0,6.0,96,0.01,,OVC012,0.01,0.00,VWS V14.01,2013-07-23 09:22:00,
2013-07-23 05:25:00,67.8,66.6,29.69,SE,126,4.0,9.0,96,0.01,,OVC012,0.01,0.00,VWS V14.01,2013-07-23 09:25:00,
2013-07-23 05:28:00,67.8,66.6,29.69,ENE,67,6.0,7.0,96,0.01,,OVC012,0.01,0.00,VWS V14.01,2013-07-23 09:28:00,
2013-07-23 05:30:00,67.8,66.6,29.69,ESE,122,4.0,8.0,96,0.01,,OVC012,0.01,0.00,VWS V14.01,2013-07-23 09:30:00,
2013-07-23 05:33:00,67.8,66.6,29.69,ENE,71,5.0,6.0,96,0.01,,OVC012,0.01,0.00,VWS V14.01,2013-07-23 09:33:00,
2013-07-23 05:35:00,67.8,66.6,29.69,ESE,103,6.0,7.0,96,0.01,,OVC012,0.01,0.00,VWS V14.01,2013-07-23 09:35:00,
2013-07-23 05:38:00,67.8,66.6,29.69,East,98,5.0,5.0,96,0.01,,OVC012,0.01,0.00,VWS V14.01,2013-07-23 09:38:00,
2013-07-23 05:40:00,67.8,66.6,29.69,East,86,3.0,7.0,96,0.01,,OVC012,0.01,0.00,VWS V14.01,2013-07-23 09:40:00,
2013-07-23 05:43:00,67.8,66.6,29.69,ESE,113,5.0,7.0,96,0.02,,OVC012,0.02,0.00,VWS V14.01,2013-07-23 09:43:00,
2013-07-23 05:45:00,67.8,66.6,29.69,ESE,109,5.0,9.0,96,0.02,,OVC012,0.02,0.00,VWS V14.01,2013-07-23 09:45:00,
2013-07-23 05:48:00,67.8,66.6,29.69,East,97,6.0,7.0,96,0.02,,OVC012,0.02,0.00,VWS V14.01,2013-07-23 09:48:00,
2013-07-23 05:50:00,67.8,66.6,29.68,ESE,105,7.0,8.0,96,0.02,,OVC012,0.02,0.00,VWS V14.01,2013-07-23 09:50:00,
2013-07-23 05:53:00,67.8,66.6,29.68,ESE,117,7.0,7.0,96,0.02,,OVC012,0.02,0.00,VWS V14.01,2013-07-23 09:53:00,
2013-07-23 05:55:00,67.8,66.6,29.68,ESE,117,6.0,7.0,96,0.02,,OVC012,0.02,0.00,VWS V14.01,2013-07-23 09:55:00,
2013-07-23 05:58:00,67.8,66.6,29.68,ESE,107,6.0,8.0,96,0.02,,OVC012,0.02,0.00,VWS V14.01,2013-07-23 09:58:00,
2013-07-23 06:00:00,67.8,66.6,29.68,ESE,118,7.0,8.0,96,0.02,,OVC012,0.02,0.00,VWS V14.01,2013-07-23 10:00:00,
2013-07-23 06:03:00,67.8,66.6,29.68,ESE,109,7.0,9.0,96,0.02,,OVC012,0.02,0.00,VWS V14.01,2013-07-23 10:03:00,
2013-07-23 06:05:00,67.8,66.6,29.69,ESE,111,7.0,11.0,96,0.02,,OVC012,0.02,0.00,VWS V14.01,2013-07-23 10:05:00,
2013-07-23 06:08:00,67.8,66.6,29.68,ESE,105,6.0,6.0,96,0.02,,OVC012,0.02,0.00,VWS V14.01,2013-07-23 10:08:00,
2013-07-23 06:10:00,67.8,66.6,29.68,ESE,113,6.0,9.0,96,0.02,,OVC012,0.02,0.00,VWS V14.01,2013-07-23 10:10:00,
2013-07-23 06:13:00,67.8,66.6,29.68,East,94,4.0,5.0,96,0.02,,OVC012,0.02,0.00,VWS V14.01,2013-07-23 10:13:00,
2013-07-23 06:15:00,67.8,66.6,29.68,East,98,5.0,6.0,96,0.02,,OVC012,0.02,0.00,VWS V14.01,2013-07-23 10:15:00,
2013-07-23 06:18:00,67.7,66.5,29.68,East,85,4.0,7.0,96,0.03,,OVC012,0.03,0.00,VWS V14.01,2013-07-23 10:18:00,
2013-07-23 06:20:00,67.7,66.5,29.68,East,92,5.0,12.0,96,0.03,,OVC012,0.03,0.00,VWS V14.01,2013-07-23 10:20:00,
2013-07-23 06:23:00,67.7,66.5,29.68,East,101,5.0,7.0,96,0.02,,OVC012,0.03,5.00,VWS V14.01,2013-07-23 10:23:00,
2013-07-23 06:25:00,67.7,66.5,29.68,ESE,110,4.0,7.0,96,0.03,,OVC012,0.03,5.00,VWS V14.01,2013-07-23 10:25:00,
2013-07-23 06:28:00,67.7,66.5,29.68,ESE,109,5.0,8.0,96,0.02,,OVC012,0.03,5.00,VWS V14.01,2013-07-23 10:28:00,
2013-07-23 06:30:00,67.7,66.5,29.68,East,84,5.0,7.0,96,0.02,,OVC012,0.03,5.00,VWS V14.01,2013-07-23 10:30:00,
2013-07-23 06:33:00,67.7,66.5,29.67,East,89,3.0,5.0,96,0.03,,OVC012,0.04,7.00,VWS V14.01,2013-07-23 10:33:00,
2013-07-23 06:35:00,67.7,66.5,29.67,ESE,120,2.0,8.0,96,0.03,,OVC012,0.04,7.00,VWS V14.01,2013-07-23 10:35:00,
2013-07-23 06:38:00,67.7,66.5,29.67,East,91,4.0,6.0,96,0.04,,OVC012,0.05,7.00,VWS V14.01,2013-07-23 10:38:00,
2013-07-23 06:40:00,67.7,66.5,29.68,East,90,6.0,6.0,96,0.04,,OVC012,0.05,7.00,VWS V14.01,2013-07-23 10:40:00,
2013-07-23 06:43:00,67.7,66.5,29.67,East,88,6.0,7.0,96,0.03,,OVC012,0.05,7.00,VWS V14.01,2013-07-23 10:43:00,
2013-07-23 06:45:00,67.7,66.5,29.67,East,85,5.0,7.0,96,0.04,,OVC012,0.05,7.00,VWS V14.01,2013-07-23 10:45:00,
2013-07-23 06:49:00,67.7,66.5,29.67,East,99,4.0,6.0,96,0.04,,OVC012,0.06,7.00,VWS V14.01,2013-07-23 10:49:00,
2013-07-23 06:50:00,67.7,66.5,29.67,ESE,115,5.0,7.0,96,0.03,,OVC012,0.05,7.00,VWS V14.01,2013-07-23 10:50:00,
2013-07-23 06:54:00,67.8,66.6,29.67,East,98,5.0,7.0,96,0.04,,OVC012,0.06,7.00,VWS V14.01,2013-07-23 10:54:00,
2013-07-23 06:55:00,67.8,66.6,29.67,ESE,117,6.0,7.0,96,0.04,,OVC012,0.06,7.00,VWS V14.01,2013-07-23 10:55:00,
2013-07-23 06:59:00,67.8,66.6,29.67,ESE,106,5.0,6.0,96,0.05,,OVC012,0.07,9.00,VWS V14.01,2013-07-23 10:59:00,
2013-07-23 07:00:00,67.8,66.6,29.67,ESE,117,5.0,7.0,96,0.05,,OVC012,0.07,9.00,VWS V14.01,2013-07-23 11:00:00,
2013-07-23 07:04:00,67.8,66.6,29.67,ESE,103,4.0,8.0,96,0.06,,OVC012,0.08,9.00,VWS V14.01,2013-07-23 11:04:00,
2013-07-23 07:05:00,67.8,66.6,29.67,ESE,103,5.0,8.0,96,0.05,,OVC012,0.07,11.00,VWS V14.01,2013-07-23 11:05:00,
2013-07-23 07:09:00,67.8,66.6,29.66,ESE,103,2.0,5.0,96,0.07,,OVC012,0.09,5.00,VWS V14.01,2013-07-23 11:09:00,
2013-07-23 07:10:00,67.8,66.6,29.66,ESE,104,4.0,8.0,96,0.06,,OVC012,0.08,9.00,VWS V14.01,2013-07-23 11:10:00,
2013-07-23 07:14:00,67.9,66.7,29.66,ESE,106,5.0,6.0,96,0.07,,OVC012,0.09,0.00,VWS V14.01,2013-07-23 11:14:00,
2013-07-23 07:15:00,67.8,66.6,29.66,ESE,104,2.0,5.0,96,0.07,,OVC012,0.09,0.00,VWS V14.01,2013-07-23 11:15:00,
2013-07-23 07:19:00,67.8,66.6,29.66,ESE,106,5.0,6.0,96,0.07,,OVC012,0.10,5.00,VWS V14.01,2013-07-23 11:19:00,
2013-07-23 07:20:00,67.9,66.7,29.66,ESE,106,2.0,6.0,96,0.08,,OVC012,0.10,5.00,VWS V14.01,2013-07-23 11:20:00,
2013-07-23 07:24:00,67.9,66.7,29.65,East,90,4.0,6.0,96,0.08,,OVC012,0.11,0.00,VWS V14.01,2013-07-23 11:24:00,
2013-07-23 07:25:00,67.9,66.7,29.66,ESE,106,1.0,6.0,96,0.08,,OVC012,0.11,0.00,VWS V14.01,2013-07-23 11:25:00,
2013-07-23 07:29:00,67.9,66.7,29.65,ESE,107,1.0,5.0,96,0.09,,OVC012,0.12,11.00,VWS V14.01,2013-07-23 11:29:00,
2013-07-23 07:30:00,67.9,66.7,29.66,ESE,107,2.0,6.0,96,0.09,,OVC012,0.12,7.00,VWS V14.01,2013-07-23 11:30:00,
2013-07-23 07:34:00,68.0,66.8,29.65,ESE,107,1.0,5.0,96,0.09,,OVC012,0.13,11.00,VWS V14.01,2013-07-23 11:34:00,
2013-07-23 07:35:00,68.0,66.8,29.65,ESE,107,4.0,5.0,96,0.10,,OVC012,0.13,9.00,VWS V14.01,2013-07-23 11:35:00,
2013-07-23 07:39:00,68.1,66.9,29.65,ESE,118,5.0,6.0,96,0.09,,OVC012,0.14,14.00,VWS V14.01,2013-07-23 11:39:00,
2013-07-23 07:40:00,68.1,66.9,29.65,SE,126,5.0,7.0,96,0.10,,OVC012,0.14,12.00,VWS V14.01,2013-07-23 11:40:00,
2013-07-23 07:44:00,68.1,66.9,29.65,ESE,104,2.0,5.0,96,0.10,,OVC012,0.15,18.00,VWS V14.01,2013-07-23 11:44:00,
2013-07-23 07:45:00,68.1,66.9,29.65,ESE,118,2.0,6.0,96,0.10,,OVC012,0.15,12.00,VWS V14.01,2013-07-23 11:45:00,
2013-07-23 07:49:00,68.1,66.9,29.65,ESE,111,5.0,6.0,96,0.11,,OVC012,0.16,16.00,VWS V14.01,2013-07-23 11:49:00,
2013-07-23 07:50:00,68.1,66.9,29.65,ESE,111,5.0,7.0,96,0.10,,OVC012,0.15,19.00,VWS V14.01,2013-07-23 11:50:00,
2013-07-23 07:54:00,68.2,67.0,29.64,ESE,111,5.0,9.0,96,0.11,,OVC012,0.17,16.00,VWS V14.01,2013-07-23 11:54:00,
2013-07-23 07:55:00,68.1,66.9,29.65,East,98,4.0,8.0,96,0.11,,OVC012,0.16,16.00,VWS V14.01,2013-07-23 11:55:00,
2013-07-23 07:59:00,68.3,67.1,29.64,SE,124,4.0,7.0,96,0.11,,OVC012,0.18,26.00,VWS V14.01,2013-07-23 11:59:00,
2013-07-23 08:00:00,68.2,67.0,29.64,SE,134,7.0,9.0,96,0.11,,OVC012,0.17,25.00,VWS V14.01,2013-07-23 12:00:00,
2013-07-23 08:05:00,68.4,67.2,29.64,ESE,123,4.0,5.0,96,0.12,,OVC012,0.19,26.00,VWS V14.01,2013-07-23 12:05:00,
2013-07-23 08:10:00,68.4,67.2,29.64,ESE,119,4.0,5.0,96,0.11,,OVC012,0.19,40.00,VWS V14.01,2013-07-23 12:10:00,
2013-07-23 08:15:00,68.4,67.2,29.64,East,93,4.0,6.0,96,0.11,,OVC012,0.20,40.00,VWS V14.01,2013-07-23 12:15:00,
2013-07-23 08:20:00,68.5,67.3,29.63,ESE,118,4.0,4.0,96,0.11,,OVC012,0.21,32.00,VWS V14.01,2013-07-23 12:20:00,
2013-07-23 08:25:00,68.5,67.3,29.63,ESE,103,2.0,5.0,96,0.11,,OVC012,0.22,33.00,VWS V14.01,2013-07-23 12:25:00,
2013-07-23 08:30:00,68.6,67.4,29.63,ESE,108,5.0,6.0,96,0.11,,OVC012,0.23,35.00,VWS V14.01,2013-07-23 12:30:00,
2013-07-23 08:35:00,68.8,67.6,29.62,East,90,6.0,6.0,96,0.10,,OVC012,0.23,54.00,VWS V14.01,2013-07-23 12:35:00,
2013-07-23 08:40:00,68.9,67.7,29.62,ESE,110,6.0,6.0,96,0.10,,OVC012,0.24,53.00,VWS V14.01,2013-07-23 12:40:00,
2013-07-23 08:45:00,68.9,67.7,29.62,East,89,3.0,8.0,96,0.10,,OVC012,0.25,51.00,VWS V14.01,2013-07-23 12:45:00,
2013-07-23 08:50:00,68.9,67.7,29.62,ESE,115,5.0,6.0,96,0.11,,OVC012,0.26,47.00,VWS V14.01,2013-07-23 12:50:00,
2013-07-23 08:55:00,69.0,67.8,29.62,ESE,115,2.0,5.0,96,0.10,,OVC012,0.26,76.00,VWS V14.01,2013-07-23 12:55:00,
2013-07-23 09:00:00,69.2,68.0,29.62,ESE,119,4.0,6.0,96,0.10,,OVC012,0.27,60.00,VWS V14.01,2013-07-23 13:00:00,
2013-07-23 09:05:00,69.3,68.1,29.61,ESE,118,2.0,7.0,96,0.09,,OVC012,0.27,65.00,VWS V14.01,2013-07-23 13:05:00,
2013-07-23 09:10:00,69.3,68.1,29.61,ESE,118,2.0,7.0,96,0.10,,OVC012,0.28,74.00,VWS V14.01,2013-07-23 13:10:00,
2013-07-23 09:11:00,69.3,68.1,29.61,ESE,113,7.0,9.0,96,0.09,,OVC012,0.28,81.00,VWS V14.01,2013-07-23 13:11:00,
2013-07-23 09:15:00,69.4,68.2,29.61,ESE,118,5.0,9.0,96,0.09,,OVC012,0.28,77.00,VWS V14.01,2013-07-23 13:15:00,
2013-07-23 09:16:00,69.4,68.2,29.61,SE,128,8.0,8.0,96,0.09,,OVC012,0.29,67.00,VWS V14.01,2013-07-23 13:16:00,
2013-07-23 09:20:00,69.4,68.2,29.61,SE,126,4.0,8.0,96,0.09,,OVC012,0.29,70.00,VWS V14.01,2013-07-23 13:20:00,
2013-07-23 09:21:00,69.5,68.3,29.61,SE,130,6.0,7.0,96,0.08,,OVC012,0.29,86.00,VWS V14.01,2013-07-23 13:21:00,
2013-07-23 09:25:00,69.5,68.3,29.61,ESE,107,4.0,7.0,96,0.08,,OVC012,0.29,91.00,VWS V14.01,2013-07-23 13:25:00,
2013-07-23 09:26:00,69.6,68.4,29.60,SE,146,2.0,8.0,96,0.09,,OVC012,0.30,76.00,VWS V14.01,2013-07-23 13:26:00,
2013-07-23 09:30:00,69.7,68.5,29.60,SE,145,2.0,8.0,96,0.09,,OVC012,0.30,69.00,VWS V14.01,2013-07-23 13:30:00,
2013-07-23 09:31:00,69.8,68.6,29.61,SE,146,4.0,6.0,96,0.08,,OVC012,0.30,76.00,VWS V14.01,2013-07-23 13:31:00,
2013-07-23 09:35:00,69.8,68.6,29.61,SSE,157,5.0,7.0,96,0.08,,OVC012,0.30,81.00,VWS V14.01,2013-07-23 13:35:00,
2013-07-23 09:36:00,69.8,68.6,29.60,SE,127,4.0,8.0,96,0.08,,OVC012,0.31,107.00,VWS V14.01,2013-07-23 13:36:00,
2013-07-23 09:40:00,69.9,68.7,29.60,SE,127,2.0,8.0,96,0.08,,OVC012,0.31,90.00,VWS V14.01,2013-07-23 13:40:00,
2013-07-23 09:41:00,70.0,68.8,29.60,SE,129,2.0,5.0,96,0.07,,OVC012,0.31,60.00,VWS V14.01,2013-07-23 13:41:00,
2013-07-23 09:45:00,70.1,68.9,29.60,SSE,158,4.0,6.0,96,0.07,,OVC012,0.31,62.00,VWS V14.01,2013-07-23 13:45:00,
2013-07-23 09:46:00,70.1,68.9,29.60,SSE,161,5.0,7.0,96,0.07,,OVC012,0.31,76.00,VWS V14.01,2013-07-23 13:46:00,
2013-07-23 09:50:00,70.1,68.9,29.60,SSE,161,4.0,7.0,96,0.08,,OVC012,0.32,81.00,VWS V14.01,2013-07-23 13:50:00,
2013-07-23 09:51:00,70.2,69.0,29.60,SE,129,2.0,5.0,96,0.07,,OVC012,0.32,95.00,VWS V14.01,2013-07-23 13:51:00,
2013-07-23 09:55:00,70.3,69.1,29.60,SE,129,2.0,5.0,96,0.07,,OVC012,0.32,105.00,VWS V14.01,2013-07-23 13:55:00,
2013-07-23 09:56:00,70.3,69.1,29.60,SE,134,1.0,7.0,96,0.06,,OVC012,0.32,102.00,VWS V14.01,2013-07-23 13:56:00,
2013-07-23 10:00:00,70.3,69.1,29.60,SE,134,1.0,7.0,96,0.06,,OVC012,0.32,105.00,VWS V14.01,2013-07-23 14:00:00,
2013-07-23 10:01:00,70.4,69.2,29.60,SE,134,2.0,5.0,96,0.07,,OVC012,0.33,156.00,VWS V14.01,2013-07-23 14:01:00,
2013-07-23 10:05:00,70.4,69.2,29.60,SE,134,4.0,5.0,96,0.07,,OVC012,0.33,141.00,VWS V14.01,2013-07-23 14:05:00,
2013-07-23 10:06:00,70.6,69.4,29.59,SE,134,0.0,5.0,96,0.06,,OVC012,0.33,113.00,VWS V14.01,2013-07-23 14:06:00,
2013-07-23 10:10:00,70.7,69.5,29.59,ESE,115,5.0,5.0,96,0.06,,OVC012,0.33,118.00,VWS V14.01,2013-07-23 14:10:00,
2013-07-23 10:11:00,70.7,69.5,29.59,ESE,115,2.0,5.0,96,0.05,,OVC012,0.33,98.00,VWS V14.01,2013-07-23 14:11:00,
2013-07-23 10:15:00,70.7,69.5,29.59,ESE,115,2.0,5.0,96,0.05,,OVC012,0.33,90.00,VWS V14.01,2013-07-23 14:15:00,
2013-07-23 10:16:00,70.8,69.6,29.59,ESE,116,0.0,5.0,96,0.06,,OVC012,0.34,98.00,VWS V14.01,2013-07-23 14:16:00,
2013-07-23 10:20:00,70.8,69.6,29.59,ESE,115,0.0,5.0,96,0.06,,OVC012,0.34,109.00,VWS V14.01,2013-07-23 14:20:00,
2013-07-23 10:21:00,71.0,69.8,29.59,ESE,116,4.0,5.0,96,0.05,,OVC012,0.34,264.00,VWS V14.01,2013-07-23 14:21:00,
2013-07-23 10:25:00,71.1,69.9,29.59,ESE,115,1.0,5.0,96,0.05,,OVC012,0.34,264.00,VWS V14.01,2013-07-23 14:25:00,
2013-07-23 10:27:00,71.4,70.2,29.58,ESE,115,2.0,4.0,96,0.05,,OVC012,0.34,213.00,VWS V14.01,2013-07-23 14:27:00,
2013-07-23 10:30:00,71.4,70.2,29.58,ESE,115,4.0,4.0,96,0.05,,OVC012,0.34,213.00,VWS V14.01,2013-07-23 14:30:00,
2013-07-23 10:32:00,71.6,70.4,29.58,South,172,0.0,6.0,96,0.04,,OVC012,0.34,288.00,VWS V14.01,2013-07-23 14:32:00,
2013-07-23 10:35:00,71.7,70.5,29.58,South,173,2.0,6.0,96,0.04,,OVC012,0.34,288.00,VWS V14.01,2013-07-23 14:35:00,
2013-07-23 10:37:00,72.1,70.9,29.57,South,173,2.0,2.0,96,0.05,,OVC012,0.35,329.00,VWS V14.01,2013-07-23 14:37:00,
2013-07-23 10:40:00,72.2,71.0,29.57,South,173,2.0,2.0,96,0.05,,OVC012,0.35,329.00,VWS V14.01,2013-07-23 14:40:00,
2013-07-23 10:42:00,72.4,71.2,29.58,South,173,1.0,2.0,96,0.04,,OVC012,0.35,200.00,VWS V14.01,2013-07-23 14:42:00,
2013-07-23 10:45:00,72.5,71.3,29.58,South,173,0.0,2.0,96,0.04,,OVC012,0.35,200.00,VWS V14.01,2013-07-23 14:45:00,
2013-07-23 10:47:00,72.6,71.4,29.58,South,173,2.0,4.0,96,0.04,,OVC012,0.35,169.00,VWS V14.01,2013-07-23 14:47:00,
2013-07-23 10:50:00,72.6,71.4,29.58,South,173,2.0,4.0,96,0.04,,OVC012,0.35,163.00,VWS V14.01,2013-07-23 14:50:00,
2013-07-23 10:52:00,72.7,71.5,29.57,South,175,2.0,6.0,96,0.03,,OVC012,0.35,353.00,VWS V14.01,2013-07-23 14:52:00,
2013-07-23 10:55:00,72.7,71.5,29.57,South,174,2.0,6.0,96,0.03,,OVC012,0.35,309.00,VWS V14.01,2013-07-23 14:55:00,
2013-07-23 10:57:00,73.1,71.9,29.57,South,174,4.0,4.0,96,0.03,,OVC012,0.35,381.00,VWS V14.01,2013-07-23 14:57:00,
2013-07-23 11:00:00,73.1,71.9,29.57,South,175,4.0,4.0,96,0.03,,OVC012,0.35,381.00,VWS V14.01,2013-07-23 15:00:00,
2013-07-23 11:02:00,73.4,72.2,29.57,SSE,157,8.0,9.0,96,0.03,,OVC012,0.35,489.00,VWS V14.01,2013-07-23 15:02:00,
2013-07-23 11:05:00,73.4,72.2,29.57,SSE,157,8.0,9.0,96,0.03,,OVC012,0.35,489.00,VWS V14.01,2013-07-23 15:05:00,
2013-07-23 11:07:00,73.8,72.6,29.57,South,173,2.0,8.0,96,0.03,,OVC012,0.36,301.00,VWS V14.01,2013-07-23 15:07:00,
2013-07-23 11:10:00,73.8,72.6,29.57,South,173,2.0,8.0,96,0.03,,OVC012,0.36,301.00,VWS V14.01,2013-07-23 15:10:00,
2013-07-23 11:12:00,74.0,72.8,29.57,South,173,5.0,6.0,96,0.03,,OVC012,0.36,188.00,VWS V14.01,2013-07-23 15:12:00,
2013-07-23 11:15:00,74.0,72.8,29.57,South,173,5.0,6.0,96,0.03,,OVC012,0.36,188.00,VWS V14.01,2013-07-23 15:15:00,
2013-07-23 11:17:00,74.0,72.5,29.57,ESE,115,7.0,7.0,95,0.03,,OVC012,0.36,292.00,VWS V14.01,2013-07-23 15:17:00,
2013-07-23 11:20:00,74.0,72.5,29.57,ESE,115,7.0,7.0,95,0.03,,OVC012,0.36,292.00,VWS V14.01,2013-07-23 15:20:00,
2013-07-23 11:22:00,74.3,72.8,29.57,SSW,198,5.0,5.0,95,0.02,,OVC012,0.36,362.00,VWS V14.01,2013-07-23 15:22:00,
2013-07-23 11:25:00,74.3,72.8,29.57,SSW,198,5.0,7.0,95,0.02,,OVC012,0.36,362.00,VWS V14.01,2013-07-23 15:25:00,
2013-07-23 11:27:00,74.7,72.9,29.56,SE,128,2.0,5.0,94,0.02,,OVC012,0.36,446.00,VWS V14.01,2013-07-23 15:27:00,
2013-07-23 11:30:00,74.7,72.9,29.56,SE,127,5.0,6.0,94,0.02,,OVC012,0.36,446.00,VWS V14.01,2013-07-23 15:30:00,
2013-07-23 11:32:00,75.0,72.8,29.56,SSE,167,4.0,5.0,93,0.02,,OVC012,0.36,443.00,VWS V14.01,2013-07-23 15:32:00,
2013-07-23 11:35:00,74.9,72.7,29.56,SSE,168,4.0,7.0,93,0.02,,OVC012,0.36,443.00,VWS V14.01,2013-07-23 15:35:00,
2013-07-23 11:37:00,75.6,73.1,29.56,SSE,157,7.0,7.0,92,0.01,,OVC012,0.36,359.00,VWS V14.01,2013-07-23 15:37:00,
2013-07-23 11:40:00,75.6,73.1,29.56,SSE,158,5.0,9.0,92,0.02,,OVC012,0.36,348.00,VWS V14.01,2013-07-23 15:40:00,
2013-07-23 11:43:00,75.9,73.1,29.56,SSE,155,2.0,4.0,91,0.01,,OVC012,0.36,517.00,VWS V14.01,2013-07-23 15:43:00,
2013-07-23 11:45:00,75.8,73.0,29.56,SSE,155,2.0,9.0,91,0.01,,OVC012,0.36,517.00,VWS V14.01,2013-07-23 15:45:00,
2013-07-23 11:48:00,76.3,73.2,29.56,SSE,167,6.0,7.0,90,0.01,,OVC012,0.36,494.00,VWS V14.01,2013-07-23 15:48:00,
2013-07-23 11:50:00,76.3,73.2,29.55,SSE,150,7.0,8.0,90,0.01,,OVC012,0.36,455.00,VWS V14.01,2013-07-23 15:50:00,
2013-07-23 11:53:00,76.6,73.4,29.55,SSE,156,4.0,7.0,90,0.01,,OVC012,0.36,239.00,VWS V14.01,2013-07-23 15:53:00,
2013-07-23 11:55:00,76.6,73.1,29.55,SSE,147,5.0,7.0,89,0.01,,OVC012,0.36,285.00,VWS V14.01,2013-07-23 15:55:00,
2013-07-23 11:58:00,76.6,72.8,29.55,South,170,7.0,9.0,88,0.01,,OVC012,0.36,102.00,VWS V14.01,2013-07-23 15:58:00,
2013-07-23 12:00:00,76.7,73.2,29.55,South,179,7.0,9.0,89,0.01,,OVC012,0.36,121.00,VWS V14.01,2013-07-23 16:00:00,
2013-07-23 12:03:00,76.1,72.6,29.55,SE,143,1.0,6.0,89,0.01,,OVC012,0.36,91.00,VWS V14.01,2013-07-23 16:03:00,
2013-07-23 12:05:00,76.3,72.8,29.55,SE,144,5.0,11.0,89,0.01,,OVC012,0.36,91.00,VWS V14.01,2013-07-23 16:05:00,
2013-07-23 12:08:00,75.8,72.7,29.55,South,178,6.0,6.0,90,0.00,,OVC012,0.36,190.00,VWS V14.01,2013-07-23 16:08:00,
2013-07-23 12:10:00,75.9,72.8,29.55,SSW,194,5.0,6.0,90,0.01,,OVC012,0.36,190.00,VWS V14.01,2013-07-23 16:10:00,
2013-07-23 12:13:00,76.1,73.3,29.54,SSE,151,6.0,7.0,91,0.00,,OVC012,0.36,327.00,VWS V14.01,2013-07-23 16:13:00,
2013-07-23 12:15:00,76.1,73.6,29.54,SSE,161,1.0,6.0,92,0.00,,OVC012,0.36,355.00,VWS V14.01,2013-07-23 16:15:00,
2013-07-23 12:18:00,76.3,73.5,29.54,SSE,162,5.0,8.0,91,0.00,,OVC012,0.36,439.00,VWS V14.01,2013-07-23 16:18:00,
2013-07-23 12:20:00,76.3,73.5,29.54,SE,132,8.0,8.0,91,0.00,,OVC012,0.36,471.00,VWS V14.01,2013-07-23 16:20:00,
2013-07-23 12:23:00,76.8,74.0,29.53,South,173,2.0,6.0,91,0.01,,OVC012,0.37,425.00,VWS V14.01,2013-07-23 16:23:00,
2013-07-23 12:25:00,76.7,73.9,29.53,SE,145,6.0,8.0,91,0.01,,OVC012,0.37,436.00,VWS V14.01,2013-07-23 16:25:00,
2013-07-23 12:28:00,77.4,73.9,29.53,SSE,161,5.0,8.0,89,0.01,,OVC012,0.37,976.00,VWS V14.01,2013-07-23 16:28:00,
2013-07-23 12:30:00,77.3,74.5,29.53,SE,129,4.0,9.0,91,0.01,,OVC012,0.37,998.00,VWS V14.01,2013-07-23 16:30:00,
2013-07-23 12:33:00,78.1,74.6,29.51,South,175,9.0,15.0,89,0.01,,OVC012,0.37,1005.00,VWS V14.01,2013-07-23 16:33:00,
2013-07-23 12:35:00,77.9,74.4,29.52,SE,144,8.0,11.0,89,0.01,,OVC012,0.37,1005.00,VWS V14.01,2013-07-23 16:35:00,
2013-07-23 12:38:00,78.3,74.1,29.51,SSE,165,8.0,14.0,87,0.01,,OVC012,0.37,469.00,VWS V14.01,2013-07-23 16:38:00,
2013-07-23 12:40:00,78.2,74.0,29.51,South,186,8.0,15.0,87,0.01,,OVC012,0.37,469.00,VWS V14.01,2013-07-23 16:40:00,
2013-07-23 12:43:00,78.6,73.7,29.50,SSE,157,10.0,16.0,85,0.01,,OVC012,0.37,705.00,VWS V14.01,2013-07-23 16:43:00,
2013-07-23 12:45:00,78.5,74.0,29.51,SE,127,8.0,14.0,86,0.01,,OVC012,0.37,469.00,VWS V14.01,2013-07-23 16:45:00,
2013-07-23 12:48:00,79.1,74.9,29.50,SSE,157,9.0,11.0,87,0.01,,OVC012,0.37,345.00,VWS V14.01,2013-07-23 16:48:00,
2013-07-23 12:50:00,79.0,74.8,29.50,SSE,167,6.0,16.0,87,0.01,,OVC012,0.37,671.00,VWS V14.01,2013-07-23 16:50:00,
2013-07-23 12:54:00,79.1,73.8,29.51,South,178,11.0,15.0,84,0.01,,OVC012,0.37,262.00,VWS V14.01,2013-07-23 16:54:00,
2013-07-23 12:55:00,79.2,73.9,29.50,SSE,159,10.0,19.0,84,0.01,,OVC012,0.37,434.00,VWS V14.01,2013-07-23 16:55:00,
2013-07-23 12:59:00,78.8,73.9,29.51,SE,146,11.0,13.0,85,0.01,,OVC012,0.37,67.00,VWS V14.01,2013-07-23 16:59:00,
2013-07-23 13:00:00,78.9,73.7,29.51,SSE,152,7.0,15.0,84,0.01,,OVC012,0.37,104.00,VWS V14.01,2013-07-23 17:00:00,
2013-07-23 13:04:00,78.4,73.5,29.50,SW,222,5.0,8.0,85,0.02,,OVC012,0.38,39.00,VWS V14.01,2013-07-23 17:04:00,
2013-07-23 13:05:00,78.5,73.3,29.50,SSW,202,4.0,13.0,84,0.02,,CLR,0.38,47.00,VWS V14.01,2013-07-23 17:05:00,
2013-07-23 13:09:00,77.9,73.4,29.52,WSW,258,11.0,11.0,86,0.02,,OVC012,0.38,12.00,VWS V14.01,2013-07-23 17:09:00,
2013-07-23 13:10:00,78.1,73.2,29.51,WSW,243,6.0,8.0,85,0.02,,CLR,0.38,14.00,VWS V14.01,2013-07-23 17:10:00,
2013-07-23 13:14:00,75.8,72.0,29.52,NW,309,8.0,11.0,88,0.02,,OVC012,0.38,19.00,VWS V14.01,2013-07-23 17:14:00,
2013-07-23 13:15:00,76.6,72.8,29.52,West,279,9.0,12.0,88,0.02,,CLR,0.38,14.00,VWS V14.01,2013-07-23 17:15:00,
2013-07-23 13:19:00,74.5,71.7,29.52,NW,308,6.0,8.0,91,0.03,,OVC012,0.39,42.00,VWS V14.01,2013-07-23 17:19:00,
2013-07-23 13:20:00,74.8,72.0,29.52,West,273,6.0,11.0,91,0.02,,,0.38,18.00,VWS V14.01,2013-07-23 17:20:00,
2013-07-23 13:24:00,73.8,71.3,29.53,West,274,3.0,6.0,92,0.02,,OVC012,0.39,88.00,VWS V14.01,2013-07-23 17:24:00,
2013-07-23 13:25:00,74.0,71.5,29.53,West,267,4.0,8.0,92,0.03,,,0.39,67.00,VWS V14.01,2013-07-23 17:25:00,
2013-07-23 13:29:00,73.5,71.4,29.52,WNW,292,6.0,8.0,93,0.03,,OVC012,0.40,178.00,VWS V14.01,2013-07-23 17:29:00,
2013-07-23 13:30:00,73.6,71.5,29.52,WNW,282,4.0,7.0,93,0.02,,,0.39,174.00,VWS V14.01,2013-07-23 17:30:00,
2013-07-23 13:31:00,73.5,71.4,29.53,WSW,250,4.0,9.0,93,0.03,,OVC012,0.40,169.00,VWS V14.01,2013-07-23 17:31:00,
2013-07-23 13:35:00,73.4,71.6,29.52,WSW,252,2.0,9.0,94,0.03,,,0.40,185.00,VWS V14.01,2013-07-23 17:35:00,
2013-07-23 13:36:00,73.4,71.6,29.52,SW,236,4.0,8.0,94,0.03,,OVC012,0.40,227.00,VWS V14.01,2013-07-23 17:36:00,
2013-07-23 13:40:00,73.3,71.5,29.52,SW,231,3.0,8.0,94,0.04,,,0.41,243.00,VWS V14.01,2013-07-23 17:40:00,
2013-07-23 13:41:00,73.4,71.6,29.52,West,262,4.0,5.0,94,0.04,,OVC012,0.41,244.00,VWS V14.01,2013-07-23 17:41:00,
2013-07-23 13:45:00,73.4,71.6,29.52,SW,234,4.0,5.0,94,0.04,,,0.41,234.00,VWS V14.01,2013-07-23 17:45:00,
2013-07-23 13:46:00,73.4,71.6,29.52,SW,232,3.0,5.0,94,0.04,,OVC012,0.41,250.00,VWS V14.01,2013-07-23 17:46:00,
2013-07-23 13:50:00,73.3,71.5,29.52,SW,226,4.0,6.0,94,0.05,,,0.42,250.00,VWS V14.01,2013-07-23 17:50:00,
2013-07-23 13:51:00,73.2,71.4,29.52,WSW,237,5.0,7.0,94,0.05,,OVC012,0.42,193.00,VWS V14.01,2013-07-23 17:51:00,
2013-07-23 13:55:00,73.1,71.3,29.52,WSW,250,5.0,7.0,94,0.05,,,0.42,185.00,VWS V14.01,2013-07-23 17:55:00,
2013-07-23 13:56:00,73.0,71.2,29.52,WSW,240,4.0,6.0,94,0.06,,OVC012,0.43,128.00,VWS V14.01,2013-07-23 17:56:00,
2013-07-23 14:00:00,73.0,71.2,29.52,SW,215,3.0,6.0,94,0.06,,,0.43,125.00,VWS V14.01,2013-07-23 18:00:00,
2013-07-23 14:02:00,72.9,71.1,29.52,SW,235,4.0,8.0,94,0.06,,OVC012,0.43,139.00,VWS V14.01,2013-07-23 18:02:00,
2013-07-23 14:05:00,73.0,71.2,29.52,SW,232,3.0,8.0,94,0.06,,,0.43,139.00,VWS V14.01,2013-07-23 18:05:00,
2013-07-23 14:07:00,72.9,71.1,29.52,WSW,254,2.0,4.0,94,0.06,,OVC012,0.44,104.00,VWS V14.01,2013-07-23 18:07:00,
2013-07-23 14:10:00,72.9,71.1,29.52,WSW,256,4.0,7.0,94,0.05,,,0.43,104.00,VWS V14.01,2013-07-23 18:10:00,
2013-07-23 14:12:00,72.9,71.1,29.52,SW,235,0.0,2.0,94,0.06,,OVC012,0.44,105.00,VWS V14.01,2013-07-23 18:12:00,
2013-07-23 14:15:00,72.9,71.1,29.52,SW,236,2.0,6.0,94,0.06,,,0.44,105.00,VWS V14.01,2013-07-23 18:15:00,
2013-07-23 14:18:00,73.1,71.6,29.52,SW,236,4.0,4.0,95,0.07,,OVC012,0.45,139.00,VWS V14.01,2013-07-23 18:18:00,
2013-07-23 14:20:00,73.0,71.5,29.51,SW,236,0.0,3.0,95,0.06,,,0.44,135.00,VWS V14.01,2013-07-23 18:20:00,
2013-07-23 14:24:00,73.2,71.7,29.52,SW,236,2.0,2.0,95,0.06,,OVC012,0.45,860.00,VWS V14.01,2013-07-23 18:24:00,
2013-07-23 14:25:00,73.1,71.6,29.52,SW,236,1.0,4.0,95,0.07,,,0.45,172.00,VWS V14.01,2013-07-23 18:25:00,
2013-07-23 14:30:00,74.0,72.5,29.52,South,169,6.0,6.0,95,0.06,,OVC012,0.45,875.00,VWS V14.01,2013-07-23 18:30:00,
2013-07-23 14:35:00,74.5,73.0,29.51,SSW,213,0.0,5.0,95,0.06,,OVC012,0.46,803.00,VWS V14.01,2013-07-23 18:35:00,
2013-07-23 14:40:00,75.1,73.3,29.51,SSW,203,3.0,4.0,94,0.05,,OVC012,0.46,352.00,VWS V14.01,2013-07-23 18:40:00,
2013-07-23 14:45:00,75.5,73.7,29.51,WSW,242,3.0,8.0,94,0.06,,OVC012,0.47,765.00,VWS V14.01,2013-07-23 18:45:00,
2013-07-23 14:50:00,75.6,73.8,29.51,SW,227,3.0,8.0,94,0.06,,,0.47,765.00,VWS V14.01,2013-07-23 18:50:00,
2013-07-23 14:51:00,75.5,73.0,29.50,SW,230,0.0,3.0,92,0.05,,OVC012,0.47,188.00,VWS V14.01,2013-07-23 18:51:00,
2013-07-23 14:55:00,75.4,72.6,29.50,SW,230,2.0,3.0,91,0.05,,,0.47,197.00,VWS V14.01,2013-07-23 18:55:00,
2013-07-23 14:56:00,75.3,72.5,29.50,SW,231,0.0,3.0,91,0.05,,OVC012,0.47,276.00,VWS V14.01,2013-07-23 18:56:00,
2013-07-23 15:00:00,75.3,72.8,29.50,SW,230,0.0,3.0,92,0.05,,,0.47,276.00,VWS V14.01,2013-07-23 19:00:00,
2013-07-23 15:01:00,75.5,72.7,29.50,SW,231,0.0,4.0,91,0.05,,OVC012,0.48,269.00,VWS V14.01,2013-07-23 19:01:00,
2013-07-23 15:05:00,75.5,72.7,29.50,SW,231,1.0,4.0,91,0.05,,,0.48,237.00,VWS V14.01,2013-07-23 19:05:00,
2013-07-23 15:06:00,75.5,72.4,29.49,SW,230,0.0,1.0,90,0.05,,OVC012,0.48,285.00,VWS V14.01,2013-07-23 19:06:00,
2013-07-23 15:10:00,75.5,72.4,29.49,SW,230,0.0,1.0,90,0.05,,,0.48,285.00,VWS V14.01,2013-07-23 19:10:00,
2013-07-23 15:11:00,75.8,72.7,29.49,SW,231,0.0,0.0,90,0.05,,OVC012,0.48,274.00,VWS V14.01,2013-07-23 19:11:00,
2013-07-23 15:15:00,75.9,72.8,29.49,SW,231,0.0,0.0,90,0.05,,,0.48,274.00,VWS V14.01,2013-07-23 19:15:00,
2013-07-23 15:16:00,76.2,73.1,29.49,SW,229,3.0,5.0,90,0.05,,OVC012,0.49,816.00,VWS V14.01,2013-07-23 19:16:00,
2013-07-23 15:20:00,76.2,73.1,29.49,SW,229,2.0,5.0,90,0.05,,,0.49,816.00,VWS V14.01,2013-07-23 19:20:00,
2013-07-23 15:22:00,76.8,73.3,29.49,SW,229,2.0,3.0,89,0.05,,OVC012,0.49,812.00,VWS V14.01,2013-07-23 19:22:00,
2013-07-23 15:25:00,76.8,73.3,29.49,SW,229,2.0,3.0,89,0.05,,,0.49,812.00,VWS V14.01,2013-07-23 19:25:00,
2013-07-23 15:27:00,77.2,72.7,29.50,SSW,212,2.0,2.0,86,0.04,,OVC012,0.49,241.00,VWS V14.01,2013-07-23 19:27:00,
2013-07-23 15:30:00,77.2,72.7,29.49,SSW,212,2.0,4.0,86,0.04,,,0.49,241.00,VWS V14.01,2013-07-23 19:30:00,
2013-07-23 15:32:00,77.4,72.9,29.50,SW,226,1.0,3.0,86,0.05,,OVC012,0.50,301.00,VWS V14.01,2013-07-23 19:32:00,
2013-07-23 15:35:00,77.4,72.9,29.50,SW,226,3.0,5.0,86,0.05,,,0.50,301.00,VWS V14.01,2013-07-23 19:35:00,
2013-07-23 15:37:00,77.3,72.8,29.50,NW,320,4.0,4.0,86,0.04,,OVC012,0.50,316.00,VWS V14.01,2013-07-23 19:37:00,
2013-07-23 15:40:00,77.3,72.8,29.50,NW,317,4.0,4.0,86,0.05,,,0.50,304.00,VWS V14.01,2013-07-23 19:40:00,
2013-07-23 15:42:00,77.0,72.5,29.50,NNW,333,0.0,0.0,86,0.04,,OVC012,0.50,176.00,VWS V14.01,2013-07-23 19:42:00,
2013-07-23 15:45:00,77.1,72.6,29.50,NNW,333,0.0,4.0,86,0.04,,,0.50,183.00,VWS V14.01,2013-07-23 19:45:00,
2013-07-23 15:48:00,76.7,72.5,29.51,WNW,296,7.0,9.0,87,0.04,,OVC012,0.51,26.00,VWS V14.01,2013-07-23 19:48:00,
2013-07-23 15:50:00,76.8,72.3,29.50,NW,308,5.0,5.0,86,0.05,,,0.51,42.00,VWS V14.01,2013-07-23 19:50:00,
2013-07-23 15:53:00,72.9,68.1,29.54,West,269,15.0,23.0,85,0.04,,OVC012,0.51,18.00,VWS V14.01,2013-07-23 19:53:00,
2013-07-23 15:55:00,74.4,68.9,29.54,NW,316,10.0,27.0,83,0.04,,,0.51,16.00,VWS V14.01,2013-07-23 19:55:00,
2013-07-23 15:58:00,69.8,66.7,29.52,North,355,4.0,8.0,90,0.04,,OVC012,0.51,40.00,VWS V14.01,2013-07-23 19:58:00,
2013-07-23 16:00:00,70.3,66.9,29.52,NW,306,8.0,23.0,89,0.04,,,0.51,33.00,VWS V14.01,2013-07-23 20:00:00,
2013-07-23 16:04:00,69.1,66.7,29.50,North,360,3.0,4.0,92,0.04,,OVC012,0.52,114.00,VWS V14.01,2013-07-23 20:04:00,
2013-07-23 16:05:00,69.3,66.9,29.50,North,5,3.0,11.0,92,0.05,,,0.52,88.00,VWS V14.01,2013-07-23 20:05:00,
2013-07-23 16:09:00,69.3,67.2,29.51,WNW,293,1.0,9.0,93,0.04,,OVC012,0.52,200.00,VWS V14.01,2013-07-23 20:09:00,
2013-07-23 16:10:00,69.1,67.0,29.50,West,263,3.0,4.0,93,0.04,,,0.52,200.00,VWS V14.01,2013-07-23 20:10:00,
2013-07-23 16:14:00,69.2,67.1,29.50,NW,318,1.0,5.0,93,0.04,,OVC012,0.52,121.00,VWS V14.01,2013-07-23 20:14:00,
2013-07-23 16:15:00,69.3,67.5,29.51,WNW,294,1.0,9.0,94,0.04,,,0.52,141.00,VWS V14.01,2013-07-23 20:15:00,
2013-07-23 16:20:00,69.0,67.2,29.50,NW,315,1.0,3.0,94,0.04,,OVC012,0.53,84.00,VWS V14.01,2013-07-23 20:20:00,
2013-07-23 16:25:00,69.0,67.2,29.51,NW,315,0.0,2.0,94,0.04,,OVC012,0.53,91.00,VWS V14.01,2013-07-23 20:25:00,
2013-07-23 16:30:00,69.3,67.5,29.50,SE,135,4.0,6.0,94,0.05,,OVC012,0.54,192.00,VWS V14.01,2013-07-23 20:30:00,
2013-07-23 16:35:00,69.9,68.4,29.50,SE,134,4.0,5.0,95,0.04,,OVC012,0.54,689.00,VWS V14.01,2013-07-23 20:35:00,
2013-07-23 16:40:00,69.9,68.1,29.49,SE,128,1.0,5.0,94,0.04,,OVC012,0.54,253.00,VWS V14.01,2013-07-23 20:40:00,
2013-07-23 16:45:00,69.9,68.1,29.49,SE,128,0.0,5.0,94,0.04,,,0.54,253.00,VWS V14.01,2013-07-23 20:45:00,
2013-07-23 16:46:00,70.1,68.3,29.49,SE,128,0.0,1.0,94,0.05,,OVC012,0.55,253.00,VWS V14.01,2013-07-23 20:46:00,
2013-07-23 16:50:00,70.2,68.7,29.49,SE,128,1.0,1.0,95,0.05,,,0.55,415.00,VWS V14.01,2013-07-23 20:50:00,
2013-07-23 16:51:00,70.6,69.1,29.49,SE,128,2.0,4.0,95,0.04,,OVC012,0.55,596.00,VWS V14.01,2013-07-23 20:51:00,
2013-07-23 16:55:00,70.7,69.2,29.49,SE,128,1.0,4.0,95,0.04,,,0.55,513.00,VWS V14.01,2013-07-23 20:55:00,
2013-07-23 16:57:00,71.2,69.7,29.48,SE,128,0.0,1.0,95,0.04,,OVC012,0.55,267.00,VWS V14.01,2013-07-23 20:57:00,
2013-07-23 17:00:00,71.2,69.7,29.49,SE,128,0.0,1.0,95,0.04,,,0.55,267.00,VWS V14.01,2013-07-23 21:00:00,
2013-07-23 17:02:00,71.2,69.7,29.49,SE,128,1.0,4.0,95,0.05,,OVC012,0.56,130.00,VWS V14.01,2013-07-23 21:02:00,
2013-07-23 17:05:00,71.2,69.7,29.49,SE,128,1.0,4.0,95,0.05,,,0.56,130.00,VWS V14.01,2013-07-23 21:05:00,
2013-07-23 17:07:00,71.2,69.7,29.49,SE,128,0.0,0.0,95,0.04,,OVC012,0.56,111.00,VWS V14.01,2013-07-23 21:07:00,
2013-07-23 17:10:00,71.2,69.7,29.48,SE,128,0.0,2.0,95,0.04,,,0.56,111.00,VWS V14.01,2013-07-23 21:10:00,
2013-07-23 17:12:00,71.3,69.8,29.48,SE,128,0.0,1.0,95,0.04,,OVC012,0.56,116.00,VWS V14.01,2013-07-23 21:12:00,
2013-07-23 17:15:00,71.3,69.8,29.48,SE,128,1.0,2.0,95,0.04,,,0.56,114.00,VWS V14.01,2013-07-23 21:15:00,
2013-07-23 17:18:00,71.5,70.0,29.49,SE,128,0.0,0.0,95,0.03,,OVC012,0.56,118.00,VWS V14.01,2013-07-23 21:18:00,
2013-07-23 17:20:00,71.5,70.0,29.49,SE,128,0.0,1.0,95,0.04,,,0.56,120.00,VWS V14.01,2013-07-23 21:20:00,
2013-07-23 17:23:00,71.6,70.1,29.49,SE,128,0.0,1.0,95,0.04,,OVC012,0.57,111.00,VWS V14.01,2013-07-23 21:23:00,
2013-07-23 17:25:00,71.6,70.1,29.49,SE,128,0.0,2.0,95,0.04,,,0.57,113.00,VWS V14.01,2013-07-23 21:25:00,
2013-07-23 17:28:00,71.8,70.3,29.49,SE,128,0.0,0.0,95,0.04,,OVC012,0.57,107.00,VWS V14.01,2013-07-23 21:28:00,
2013-07-23 17:30:00,71.8,70.3,29.49,SE,128,0.0,1.0,95,0.04,,,0.57,107.00,VWS V14.01,2013-07-23 21:30:00,
2013-07-23 17:33:00,71.7,70.2,29.49,SE,128,0.0,0.0,95,0.03,,OVC012,0.57,102.00,VWS V14.01,2013-07-23 21:33:00,
2013-07-23 17:35:00,71.7,70.2,29.49,SE,128,0.0,1.0,95,0.04,,,0.57,105.00,VWS V14.01,2013-07-23 21:35:00,
2013-07-23 17:38:00,71.7,70.2,29.49,SE,128,1.0,1.0,95,0.03,,OVC012,0.57,86.00,VWS V14.01,2013-07-23 21:38:00,
2013-07-23 17:40:00,71.7,70.2,29.49,SE,128,0.0,4.0,95,0.03,,,0.57,88.00,VWS V14.01,2013-07-23 21:40:00,
2013-07-23 17:44:00,71.7,70.2,29.49,SE,128,0.0,1.0,95,0.04,,OVC012,0.58,100.00,VWS V14.01,2013-07-23 21:44:00,
2013-07-23 17:45:00,71.7,70.2,29.50,SE,128,1.0,4.0,95,0.04,,,0.58,102.00,VWS V14.01,2013-07-23 21:45:00,
2013-07-23 17:49:00,71.8,70.3,29.49,SE,128,0.0,1.0,95,0.03,,OVC012,0.58,70.00,VWS V14.01,2013-07-23 21:49:00,
2013-07-23 17:50:00,71.8,70.3,29.49,SE,128,0.0,1.0,95,0.04,,,0.58,91.00,VWS V14.01,2013-07-23 21:50:00,
2013-07-23 17:54:00,71.9,70.4,29.49,SE,128,0.0,1.0,95,0.03,,OVC012,0.58,30.00,VWS V14.01,2013-07-23 21:54:00,
2013-07-23 17:55:00,71.8,70.3,29.48,SE,128,0.0,2.0,95,0.03,,,0.58,49.00,VWS V14.01,2013-07-23 21:55:00,
2013-07-23 17:59:00,72.0,70.5,29.50,SE,128,0.0,2.0,95,0.04,,OVC012,0.59,30.00,VWS V14.01,2013-07-23 21:59:00,
2013-07-23 18:00:00,71.9,70.4,29.50,SE,128,0.0,1.0,95,0.03,,,0.58,26.00,VWS V14.01,2013-07-23 22:00:00,
2013-07-23 18:05:00,71.9,70.4,29.50,SE,128,0.0,1.0,95,0.03,,OVC012,0.59,40.00,VWS V14.01,2013-07-23 22:05:00,
2013-07-23 18:10:00,72.0,70.5,29.51,SSE,152,2.0,5.0,95,0.03,,OVC012,0.59,25.00,VWS V14.01,2013-07-23 22:10:00,
2013-07-23 18:15:00,71.9,70.4,29.51,SSE,153,2.0,5.0,95,0.03,,OVC012,0.59,14.00,VWS V14.01,2013-07-23 22:15:00,
2013-07-23 18:20:00,71.8,70.3,29.51,SSE,154,2.0,5.0,95,0.03,,OVC012,0.59,14.00,VWS V14.01,2013-07-23 22:20:00,
2013-07-23 18:25:00,71.6,70.1,29.50,SSE,153,1.0,4.0,95,0.02,,OVC012,0.59,26.00,VWS V14.01,2013-07-23 22:25:00,
2013-07-23 18:30:00,71.6,70.1,29.51,SSE,153,0.0,4.0,95,0.02,,,0.59,26.00,VWS V14.01,2013-07-23 22:30:00,
2013-07-23 18:31:00,71.6,70.1,29.50,SSE,154,1.0,4.0,95,0.03,,OVC012,0.60,26.00,VWS V14.01,2013-07-23 22:31:00,
2013-07-23 18:35:00,71.6,70.1,29.50,SSE,154,0.0,4.0,95,0.03,,,0.60,26.00,VWS V14.01,2013-07-23 22:35:00,
2013-07-23 18:37:00,71.6,70.1,29.50,SSE,154,1.0,1.0,95,0.03,,OVC012,0.60,26.00,VWS V14.01,2013-07-23 22:37:00,
2013-07-23 18:40:00,71.6,70.1,29.50,SSE,154,1.0,1.0,95,0.03,,,0.60,26.00,VWS V14.01,2013-07-23 22:40:00,
2013-07-23 18:42:00,71.6,70.1,29.50,SSE,153,4.0,4.0,95,0.03,,OVC012,0.60,28.00,VWS V14.01,2013-07-23 22:42:00,
2013-07-23 18:45:00,71.6,70.1,29.50,SSE,153,4.0,4.0,95,0.03,,,0.60,28.00,VWS V14.01,2013-07-23 22:45:00,
2013-07-23 18:48:00,71.7,70.2,29.50,SSE,154,2.0,2.0,95,0.02,,OVC012,0.60,33.00,VWS V14.01,2013-07-23 22:48:00,
2013-07-23 18:50:00,71.7,70.2,29.51,SSE,154,1.0,5.0,95,0.02,,,0.60,33.00,VWS V14.01,2013-07-23 22:50:00,
2013-07-23 18:53:00,71.7,70.2,29.51,SSE,154,1.0,4.0,95,0.02,,OVC012,0.60,32.00,VWS V14.01,2013-07-23 22:53:00,
2013-07-23 18:55:00,71.7,70.2,29.50,SSE,153,2.0,2.0,95,0.02,,,0.60,33.00,VWS V14.01,2013-07-23 22:55:00,
2013-07-23 19:00:00,71.7,70.2,29.51,SSE,153,0.0,1.0,95,0.03,,OVC012,0.61,28.00,VWS V14.01,2013-07-23 23:00:00,
2013-07-23 19:05:00,71.7,70.2,29.51,SSE,154,0.0,1.0,95,0.03,,,0.61,25.00,VWS V14.01,2013-07-23 23:05:00,
2013-07-23 19:06:00,71.7,70.2,29.51,SSE,153,2.0,2.0,95,0.02,,OVC012,0.61,19.00,VWS V14.01,2013-07-23 23:06:00,
2013-07-23 19:10:00,71.8,70.3,29.51,SSE,153,2.0,4.0,95,0.02,,,0.61,16.00,VWS V14.01,2013-07-23 23:10:00,
2013-07-23 19:11:00,72.0,70.5,29.52,SSE,154,0.0,5.0,95,0.02,,OVC012,0.61,12.00,VWS V14.01,2013-07-23 23:11:00,
2013-07-23 19:15:00,72.0,70.5,29.52,SSE,154,2.0,5.0,95,0.02,,,0.61,11.00,VWS V14.01,2013-07-23 23:15:00,
2013-07-23 19:16:00,72.0,70.5,29.52,SSE,153,0.0,4.0,95,0.02,,OVC012,0.61,11.00,VWS V14.01,2013-07-23 23:16:00,
2013-07-23 19:20:00,71.9,70.4,29.52,SSE,154,0.0,4.0,95,0.02,,,0.61,11.00,VWS V14.01,2013-07-23 23:20:00,
2013-07-23 19:21:00,71.8,70.3,29.51,SSE,154,0.0,0.0,95,0.02,,OVC012,0.61,12.00,VWS V14.01,2013-07-23 23:21:00,
2013-07-23 19:25:00,71.8,70.3,29.51,SSE,153,0.0,0.0,95,0.02,,,0.61,14.00,VWS V14.01,2013-07-23 23:25:00,
2013-07-23 19:26:00,71.7,70.2,29.52,SSE,153,0.0,0.0,95,0.02,,OVC012,0.61,18.00,VWS V14.01,2013-07-23 23:26:00,
2013-07-23 19:30:00,71.7,70.2,29.52,SSE,154,0.0,0.0,95,0.02,,,0.61,18.00,VWS V14.01,2013-07-23 23:30:00,
2013-07-23 19:31:00,71.7,70.2,29.52,SSE,153,1.0,4.0,95,0.02,,OVC012,0.61,26.00,VWS V14.01,2013-07-23 23:31:00,
2013-07-23 19:35:00,71.7,70.2,29.52,SSE,154,0.0,4.0,95,0.02,,,0.61,26.00,VWS V14.01,2013-07-23 23:35:00,
2013-07-23 19:37:00,71.7,70.2,29.53,SSE,153,0.0,1.0,95,0.02,,OVC012,0.62,23.00,VWS V14.01,2013-07-23 23:37:00,
2013-07-23 19:40:00,71.7,70.2,29.53,SSE,154,0.0,1.0,95,0.02,,,0.62,23.00,VWS V14.01,2013-07-23 23:40:00,
2013-07-23 19:42:00,71.7,70.2,29.53,SSE,153,1.0,2.0,95,0.02,,OVC012,0.62,23.00,VWS V14.01,2013-07-23 23:42:00,
2013-07-23 19:45:00,71.7,70.2,29.53,SSE,153,2.0,4.0,95,0.02,,,0.62,23.00,VWS V14.01,2013-07-23 23:45:00,
2013-07-23 19:47:00,71.6,70.1,29.53,SSE,153,0.0,1.0,95,0.02,,OVC012,0.62,16.00,VWS V14.01,2013-07-23 23:47:00,
2013-07-23 19:50:00,71.6,70.1,29.53,SSE,153,0.0,5.0,95,0.02,,,0.62,16.00,VWS V14.01,2013-07-23 23:50:00,
2013-07-23 19:53:00,71.6,70.1,29.53,SSE,154,1.0,2.0,95,0.02,,OVC012,0.62,23.00,VWS V14.01,2013-07-23 23:53:00,
2013-07-23 19:55:00,71.6,70.1,29.53,SSE,153,0.0,1.0,95,0.02,,,0.62,21.00,VWS V14.01,2013-07-23 23:55:00,
2013-07-23 19:59:00,71.6,70.1,29.53,SSE,154,2.0,5.0,95,0.01,,OVC012,0.62,21.00,VWS V14.01,2013-07-23 23:59:00,
2013-07-23 20:00:00,71.6,70.1,29.53,SSE,153,1.0,4.0,95,0.02,,,0.62,25.00,VWS V14.01,2013-07-24 00:00:00,
2013-07-23 20:04:00,71.6,70.1,29.53,SSE,159,1.0,6.0,95,0.01,,OVC012,0.62,23.00,VWS V14.01,2013-07-24 00:04:00,
2013-07-23 20:05:00,71.6,70.1,29.53,SSE,157,4.0,6.0,95,0.01,,,0.62,18.00,VWS V14.01,2013-07-24 00:05:00,
2013-07-23 20:09:00,71.6,70.1,29.53,SSE,159,2.0,5.0,95,0.01,,OVC012,0.62,16.00,VWS V14.01,2013-07-24 00:09:00,
2013-07-23 20:10:00,71.6,70.1,29.53,SSE,159,4.0,6.0,95,0.01,,,0.62,16.00,VWS V14.01,2013-07-24 00:10:00,
2013-07-23 20:15:00,71.5,70.0,29.53,SSE,159,0.0,1.0,95,0.02,,OVC012,0.63,14.00,VWS V14.01,2013-07-24 00:15:00,
2013-07-23 20:20:00,71.4,69.9,29.54,SSE,159,1.0,2.0,95,0.02,,OVC012,0.63,0.00,VWS V14.01,2013-07-24 00:20:00,
2013-07-23 20:25:00,71.4,69.9,29.53,SSE,159,1.0,2.0,95,0.02,,OVC012,0.63,0.00,VWS V14.01,2013-07-24 00:25:00,
2013-07-23 20:30:00,71.3,69.8,29.54,SSE,159,0.0,1.0,95,0.02,,OVC012,0.63,0.00,VWS V14.01,2013-07-24 00:30:00,
2013-07-23 20:35:00,71.3,69.8,29.54,SSE,159,0.0,1.0,95,0.02,,OVC012,0.63,0.00,VWS V14.01,2013-07-24 00:35:00,
2013-07-23 20:40:00,71.3,70.1,29.53,SSE,159,0.0,0.0,96,0.01,,OVC012,0.63,0.00,VWS V14.01,2013-07-24 00:40:00,
2013-07-23 20:45:00,71.3,70.1,29.53,SSE,159,0.0,0.0,96,0.01,,,0.63,0.00,VWS V14.01,2013-07-24 00:45:00,
2013-07-23 20:46:00,71.3,69.8,29.52,SSE,159,0.0,1.0,95,0.01,,OVC012,0.63,0.00,VWS V14.01,2013-07-24 00:46:00,
2013-07-23 20:50:00,71.3,69.8,29.52,SSE,159,0.0,1.0,95,0.01,,,0.63,0.00,VWS V14.01,2013-07-24 00:50:00,
2013-07-23 20:51:00,71.3,69.8,29.52,SSE,159,0.0,0.0,95,0.01,,OVC012,0.63,0.00,VWS V14.01,2013-07-24 00:51:00,
2013-07-23 20:55:00,71.2,70.0,29.52,SSE,159,0.0,0.0,96,0.01,,,0.63,0.00,VWS V14.01,2013-07-24 00:55:00,
2013-07-23 20:56:00,71.2,70.0,29.52,SSE,159,0.0,1.0,96,0.01,,OVC012,0.63,0.00,VWS V14.01,2013-07-24 00:56:00,
2013-07-23 21:00:00,71.2,70.0,29.52,SSE,159,0.0,1.0,96,0.01,,,0.63,0.00,VWS V14.01,2013-07-24 01:00:00,
2013-07-23 21:01:00,71.2,70.0,29.52,SSE,159,0.0,0.0,96,0.01,,OVC012,0.63,0.00,VWS V14.01,2013-07-24 01:01:00,
2013-07-23 21:05:00,71.2,70.0,29.52,SSE,159,0.0,0.0,96,0.01,,,0.63,0.00,VWS V14.01,2013-07-24 01:05:00,
2013-07-23 21:06:00,71.3,70.1,29.52,SSE,159,1.0,2.0,96,0.01,,OVC012,0.63,0.00,VWS V14.01,2013-07-24 01:06:00,
2013-07-23 21:10:00,71.3,70.1,29.52,SSE,159,2.0,2.0,96,0.01,,,0.63,0.00,VWS V14.01,2013-07-24 01:10:00,
2013-07-23 21:12:00,71.3,70.1,29.53,SSE,159,1.0,1.0,96,0.01,,OVC012,0.64,0.00,VWS V14.01,2013-07-24 01:12:00,
2013-07-23 21:15:00,71.3,70.1,29.53,SSE,159,0.0,4.0,96,0.02,,,0.64,0.00,VWS V14.01,2013-07-24 01:15:00,
2013-07-23 21:17:00,71.2,70.0,29.53,SSE,159,0.0,1.0,96,0.01,,OVC012,0.64,0.00,VWS V14.01,2013-07-24 01:17:00,
2013-07-23 21:20:00,71.2,70.0,29.53,SSE,159,0.0,2.0,96,0.01,,,0.64,0.00,VWS V14.01,2013-07-24 01:20:00,
2013-07-23 21:23:00,71.2,70.0,29.54,SSE,159,0.0,1.0,96,0.01,,OVC012,0.64,0.00,VWS V14.01,2013-07-24 01:23:00,
2013-07-23 21:25:00,71.2,70.0,29.54,SSE,159,0.0,2.0,96,0.01,,,0.64,0.00,VWS V14.01,2013-07-24 01:25:00,
2013-07-23 21:28:00,71.2,70.0,29.53,SSE,159,0.0,0.0,96,0.01,,OVC012,0.64,0.00,VWS V14.01,2013-07-24 01:28:00,
2013-07-23 21:30:00,71.2,70.0,29.53,SSE,159,0.0,4.0,96,0.01,,,0.64,0.00,VWS V14.01,2013-07-24 01:30:00,
2013-07-23 21:33:00,71.2,70.0,29.54,SSE,159,0.0,0.0,96,0.01,,OVC012,0.64,0.00,VWS V14.01,2013-07-24 01:33:00,
2013-07-23 21:35:00,71.2,70.0,29.53,SSE,159,0.0,0.0,96,0.01,,,0.64,0.00,VWS V14.01,2013-07-24 01:35:00,
2013-07-23 21:38:00,71.1,69.9,29.54,SSE,159,0.0,1.0,96,0.01,,OVC012,0.64,0.00,VWS V14.01,2013-07-24 01:38:00,
2013-07-23 21:40:00,71.1,69.9,29.54,SSE,159,0.0,1.0,96,0.01,,,0.64,0.00,VWS V14.01,2013-07-24 01:40:00,
2013-07-23 21:43:00,71.1,69.9,29.54,SSE,159,0.0,0.0,96,0.01,,OVC012,0.64,0.00,VWS V14.01,2013-07-24 01:43:00,
2013-07-23 21:45:00,71.1,69.9,29.54,SSE,159,0.0,1.0,96,0.01,,,0.64,0.00,VWS V14.01,2013-07-24 01:45:00,
2013-07-23 21:49:00,71.1,69.9,29.54,SSE,159,0.0,0.0,96,0.01,,OVC012,0.64,0.00,VWS V14.01,2013-07-24 01:49:00,
2013-07-23 21:50:00,71.1,69.9,29.54,SSE,159,0.0,0.0,96,0.01,,,0.64,0.00,VWS V14.01,2013-07-24 01:50:00,
2013-07-23 21:54:00,71.1,69.9,29.53,SSE,159,1.0,1.0,96,0.01,,OVC012,0.64,0.00,VWS V14.01,2013-07-24 01:54:00,
2013-07-23 21:55:00,71.1,69.9,29.54,SSE,159,0.0,0.0,96,0.01,,,0.64,0.00,VWS V14.01,2013-07-24 01:55:00,
2013-07-23 21:59:00,71.2,70.0,29.53,SSE,159,1.0,2.0,96,0.01,,OVC012,0.64,0.00,VWS V14.01,2013-07-24 01:59:00,
2013-07-23 22:00:00,71.2,70.0,29.54,SSE,159,2.0,2.0,96,0.01,,,0.64,0.00,VWS V14.01,2013-07-24 02:00:00,
2013-07-23 22:04:00,71.2,70.0,29.54,SSE,159,0.0,0.0,96,0.01,,OVC012,0.64,0.00,VWS V14.01,2013-07-24 02:04:00,
2013-07-23 22:05:00,71.2,70.0,29.53,SSE,159,0.0,2.0,96,0.01,,,0.64,0.00,VWS V14.01,2013-07-24 02:05:00,
2013-07-23 22:10:00,71.1,69.9,29.54,SSE,159,0.0,1.0,96,0.01,,OVC012,0.64,0.00,VWS V14.01,2013-07-24 02:10:00,
2013-07-23 22:15:00,71.1,69.9,29.54,SSE,159,0.0,0.0,96,0.00,,OVC012,0.64,0.00,VWS V14.01,2013-07-24 02:15:00,
2013-07-23 22:20:00,71.2,70.0,29.54,SSE,159,0.0,1.0,96,0.00,,OVC012,0.64,0.00,VWS V14.01,2013-07-24 02:20:00,
2013-07-23 22:25:00,71.1,69.9,29.54,SSE,159,0.0,1.0,96,0.01,,OVC012,0.65,0.00,VWS V14.01,2013-07-24 02:25:00,
2013-07-23 22:30:00,71.1,69.9,29.54,SSE,159,1.0,1.0,96,0.01,,,0.65,0.00,VWS V14.01,2013-07-24 02:30:00,
2013-07-23 22:31:00,71.0,69.8,29.54,SSE,159,2.0,2.0,96,0.01,,OVC012,0.65,0.00,VWS V14.01,2013-07-24 02:31:00,
2013-07-23 22:35:00,71.0,69.8,29.54,SSE,159,2.0,2.0,96,0.01,,,0.65,0.00,VWS V14.01,2013-07-24 02:35:00,
2013-07-23 22:36:00,71.0,69.8,29.54,SSE,159,0.0,2.0,96,0.01,,OVC012,0.65,0.00,VWS V14.01,2013-07-24 02:36:00,
2013-07-23 22:40:00,71.0,69.8,29.54,SSE,159,0.0,2.0,96,0.01,,,0.65,0.00,VWS V14.01,2013-07-24 02:40:00,
2013-07-23 22:42:00,70.9,69.7,29.54,SSE,159,0.0,0.0,96,0.01,,OVC012,0.65,0.00,VWS V14.01,2013-07-24 02:42:00,
2013-07-23 22:45:00,71.0,69.8,29.54,SSE,159,0.0,0.0,96,0.01,,,0.65,0.00,VWS V14.01,2013-07-24 02:45:00,
2013-07-23 22:47:00,70.9,69.7,29.54,SSE,159,0.0,0.0,96,0.01,,OVC012,0.65,0.00,VWS V14.01,2013-07-24 02:47:00,
2013-07-23 22:50:00,70.9,69.7,29.54,SSE,159,0.0,0.0,96,0.01,,,0.65,0.00,VWS V14.01,2013-07-24 02:50:00,
2013-07-23 22:52:00,70.9,69.7,29.54,SSE,159,0.0,0.0,96,0.01,,OVC012,0.65,0.00,VWS V14.01,2013-07-24 02:52:00,
2013-07-23 22:55:00,70.9,69.7,29.54,SSE,159,0.0,0.0,96,0.01,,,0.65,0.00,VWS V14.01,2013-07-24 02:55:00,
2013-07-23 22:57:00,70.8,69.6,29.54,SSE,159,0.0,0.0,96,0.01,,OVC012,0.65,0.00,VWS V14.01,2013-07-24 02:57:00,
2013-07-23 23:00:00,70.8,69.6,29.54,SSE,159,0.0,0.0,96,0.01,,,0.65,0.00,VWS V14.01,2013-07-24 03:00:00,
2013-07-23 23:02:00,70.8,69.6,29.54,SSE,159,1.0,1.0,96,0.01,,OVC012,0.65,0.00,VWS V14.01,2013-07-24 03:02:00,
2013-07-23 23:05:00,70.8,69.6,29.54,SSE,159,1.0,1.0,96,0.01,,,0.65,0.00,VWS V14.01,2013-07-24 03:05:00,
2013-07-23 23:07:00,70.8,69.6,29.53,SSE,159,0.0,0.0,96,0.01,,OVC012,0.65,0.00,VWS V14.01,2013-07-24 03:07:00,
2013-07-23 23:10:00,70.8,69.6,29.54,SSE,159,0.0,1.0,96,0.01,,,0.65,0.00,VWS V14.01,2013-07-24 03:10:00,
2013-07-23 23:12:00,70.8,69.6,29.54,SSE,159,0.0,0.0,96,0.01,,OVC012,0.65,0.00,VWS V14.01,2013-07-24 03:12:00,
2013-07-23 23:15:00,70.8,69.6,29.54,SSE,159,0.0,0.0,96,0.01,,,0.65,0.00,VWS V14.01,2013-07-24 03:15:00,
2013-07-23 23:17:00,70.7,69.5,29.54,SSE,159,0.0,0.0,96,0.01,,OVC012,0.65,0.00,VWS V14.01,2013-07-24 03:17:00,
2013-07-23 23:20:00,70.7,69.5,29.54,SSE,159,0.0,0.0,96,0.01,,,0.65,0.00,VWS V14.01,2013-07-24 03:20:00,
2013-07-23 23:23:00,70.6,69.4,29.54,SSE,159,0.0,0.0,96,0.01,,OVC012,0.65,0.00,VWS V14.01,2013-07-24 03:23:00,
2013-07-23 23:25:00,70.6,69.4,29.54,SSE,159,0.0,0.0,96,0.01,,,0.65,0.00,VWS V14.01,2013-07-24 03:25:00,
2013-07-23 23:29:00,70.5,69.3,29.54,SSE,159,0.0,1.0,96,0.00,,OVC012,0.65,0.00,VWS V14.01,2013-07-24 03:29:00,
2013-07-23 23:30:00,70.6,69.4,29.54,SSE,159,0.0,0.0,96,0.01,,,0.65,0.00,VWS V14.01,2013-07-24 03:30:00,
2013-07-23 23:34:00,70.4,69.2,29.54,SSE,159,0.0,0.0,96,0.00,,OVC012,0.65,0.00,VWS V14.01,2013-07-24 03:34:00,
2013-07-23 23:35:00,70.5,69.3,29.54,SSE,159,0.0,1.0,96,0.00,,,0.65,0.00,VWS V14.01,2013-07-24 03:35:00,
2013-07-23 23:39:00,70.3,69.1,29.54,SSE,159,0.0,0.0,96,0.00,,OVC012,0.65,0.00,VWS V14.01,2013-07-24 03:39:00,
2013-07-23 23:40:00,70.4,69.2,29.54,SSE,159,0.0,0.0,96,0.00,,,0.65,0.00,VWS V14.01,2013-07-24 03:40:00,
2013-07-23 23:45:00,70.3,69.1,29.54,SSE,159,0.0,0.0,96,0.00,,OVC012,0.65,0.00,VWS V14.01,2013-07-24 03:45:00,
2013-07-23 23:50:00,70.3,69.1,29.54,SSE,159,0.0,0.0,96,0.00,,,0.65,0.00,VWS V14.01,2013-07-24 03:50:00,
2013-07-23 23:51:00,70.3,69.1,29.54,SSE,159,0.0,0.0,96,0.00,,OVC012,0.65,0.00,VWS V14.01,2013-07-24 03:51:00,
2013-07-23 23:55:00,70.2,69.0,29.54,SSE,159,0.0,0.0,96,0.00,,,0.65,0.00,VWS V14.01,2013-07-24 03:55:00,
2013-07-23 23:56:00,70.1,68.9,29.53,SSE,159,0.0,0.0,96,0.00,,OVC012,0.65,0.00,VWS V14.01,2013-07-24 03:56:00,